Weather reports worldwide

Advertisment
Nürburg/Barweiler, Germany (10506): temperature & dewpoint: 16.09.2019 23:00:00 - 22.09.2019 23:00:00 (CEST)Nürburg/Barweiler, Germany (10506): temperature 5cm & temperature -5cm: 16.09.2019 23:00:00 - 22.09.2019 23:00:00 (CEST)Nürburg/Barweiler, Germany (10506): temperature -20cm & temperature -100cm: 16.09.2019 23:00:00 - 22.09.2019 23:00:00 (CEST)Nürburg/Barweiler, Germany (10506): wind speed & gusts: 16.09.2019 23:00:00 - 22.09.2019 23:00:00 (CEST)Nürburg/Barweiler, Germany (10506): wind direction: 16.09.2019 23:00:00 - 22.09.2019 23:00:00 (CEST)Nürburg/Barweiler, Germany (10506): reduced air pressure: 16.09.2019 23:00:00 - 22.09.2019 23:00:00 (CEST)Nürburg/Barweiler, Germany (10506): visibility: 16.09.2019 23:00:00 - 22.09.2019 23:00:00 (CEST)Nürburg/Barweiler, Germany (10506): sunshine duration: 16.09.2019 23:00:00 - 22.09.2019 23:00:00 (CEST)Nürburg/Barweiler, Germany (10506): precipitation: 16.09.2019 23:00:00 - 22.09.2019 23:00:00 (CEST)
Date & Time tt [°C] td [°C] tt 5cm [°C] tt -5cm [°C] tt -20cm [°C] tt -100cm [°C] ff [km/h] ff [kn] fx [km/h] fx [kn] dd ppp [hPa] vv [km] sd [min] rr [mm]
22.09.2019 23:00:00 16,3 15,2 15,5 16,3 15,8 14,8 10 6 19 10 SSW 1009,9 26 0 0,0
22.09.2019 22:00:00 17,7 13,8 16,7 16,6 15,9 14,8 7 4 25 14 WSW 1009,2 44 0 0,0
22.09.2019 21:00:00 18,9 11,1 18,0 16,8 15,9 14,9 9 5 24 13 S 1008,8 54 0 0,0
22.09.2019 20:00:00 19,4 11,5 17,6 17,6 15,8 14,9 12 7 21 12 SE 1008,0 58 0 0,0
22.09.2019 19:00:00 20,5 12,2 18,9 18,7 15,6 14,9 9 5 24 13 SE 1007,6 59 1 0,0
22.09.2019 18:00:00 21,4 12,2 21,4 19,5 15,4 14,9 13 7 21 11 SE 1007,7 42 5 0,0
22.09.2019 17:00:00 22,1 12,0 22,5 19,9 15,1 14,9 8 4 26 14 S 1007,8 57 0 0,0
22.09.2019 16:00:00 21,5 11,8 21,6 20,0 14,7 14,9 13 7 29 16 S 1008,1 51 0 0,0
22.09.2019 15:00:00 22,3 11,9 23,2 20,2 14,3 14,9 13 7 28 15 S 1008,3 57 0 0,0
22.09.2019 14:00:00 21,9 11,5 23,3 19,8 13,8 14,9 18 10 34 18 SSW 1008,5 37 20 0,0
22.09.2019 13:00:00 21,7 11,4 23,1 18,6 13,4 14,9 18 10 36 19 SW 1009,1 46 22 0,0
22.09.2019 12:00:00 21,1 10,6 22,5 17,4 13,1 14,9 14 7 27 15 SSW 1009,6 33 58 0,0
22.09.2019 11:00:00 20,1 9,8 21,3 15,0 13,0 14,9 9 5 18 10 SSE 1010,1 59 60 0,0
22.09.2019 10:00:00 18,5 7,8 19,8 13,1 13,0 14,9 6 4 15 8 S 1010,6 50 60 0,0
22.09.2019 09:00:00 14,0 5,9 15,5 11,0 13,1 14,9 4 2 8 5 SSW 1011,6 56 51 0,0
22.09.2019 08:00:00 12,1 5,2 10,4 10,2 13,3 14,9 5 3 12 7 SSW 1011,9 70 0 0,0
22.09.2019 07:00:00 12,4 5,2 9,2 10,2 13,4 14,9 8 4 12 7 S 1011,9 60 0 0,0
22.09.2019 06:00:00 14,0 5,3 10,1 10,4 13,6 14,9 4 2 14 8 S 1012,0 65 0 0,0
22.09.2019 05:00:00 13,0 5,0 9,5 10,5 13,8 14,9 5 3 15 8 SSW 1012,6 70 0 0,0
22.09.2019 04:00:00 13,3 4,6 9,2 10,8 14,0 14,9 5 3 11 6 S 1012,9 60 0 0,0
22.09.2019 03:00:00 13,3 4,2 8,8 11,3 14,2 14,9 4 2 24 13 SW 1013,4 69 0 0,0
22.09.2019 02:00:00 15,5 4,3 12,6 11,7 14,4 15,0 13 7 23 12 SE 1013,1 70 0 0,0
22.09.2019 01:00:00 16,0 4,1 13,0 11,9 14,6 15,0 11 6 20 11 SE 1013,4 70 0 0,0
22.09.2019 00:00:00 15,4 3,9 10,7 12,5 14,8 15,0 5 3 22 12 SE 1014,4 70 0 0,0
21.09.2019 23:00:00 15,8 3,8 12,8 13,0 15,0 15,0 11 6 19 10 SE 1015,0 70 0 0,0
21.09.2019 22:00:00 15,8 3,1 12,7 13,8 15,1 15,0 10 5 20 11 ESE 1015,2 70 0 0,0
21.09.2019 21:00:00 15,8 2,0 12,8 14,7 15,2 15,0 9 5 21 12 ESE 1015,5 70 0 0,0
21.09.2019 20:00:00 17,0 1,5 14,4 16,1 15,2 15,0 10 5 21 11 ESE 1015,2 70 30 0,0
21.09.2019 19:00:00 18,8 2,3 16,5 17,7 15,0 15,0 11 6 21 11 SE 1015,3 53 60 0,0
21.09.2019 18:00:00 20,1 3,0 20,3 19,1 14,6 15,0 14 7 29 16 SE 1015,3 41 59 0,0
21.09.2019 17:00:00 20,8 2,7 21,8 19,9 14,1 15,0 15 8 28 15 ESE 1015,6 28 60 0,0
21.09.2019 16:00:00 20,9 1,5 22,7 20,2 13,6 15,0 13 7 29 16 E 1016,1 27 60 0,0
21.09.2019 15:00:00 20,9 1,9 22,9 19,8 13,1 15,0 14 8 29 16 E 1016,8 24 60 0,0
21.09.2019 14:00:00 19,1 0,6 21,1 18,6 12,6 15,1 18 10 30 16 ESE 1017,9 24 60 0,0
21.09.2019 13:00:00 18,5 0,1 20,4 17,0 12,2 15,1 17 9 33 18 SE 1018,8 22 60 0,0
21.09.2019 12:00:00 16,7 1,0 18,3 15,0 12,0 15,1 16 9 36 20 SE 1019,6 22 60 0,0
21.09.2019 11:00:00 15,2 2,0 17,0 12,8 11,9 15,1 11 6 28 15 ESE 1020,3 34 60 0,0
21.09.2019 10:00:00 13,1 1,8 14,3 10,6 11,9 15,1 15 8 34 18 SE 1020,7 30 60 0,0
21.09.2019 09:00:00 11,6 1,5 12,1 9,1 12,0 15,1 15 8 28 15 SE 1021,0 26 57 0,0
21.09.2019 08:00:00 11,0 1,1 9,8 8,3 12,2 15,1 16 8 31 17 SE 1021,2 45 0 0,0
21.09.2019 07:00:00 10,8 1,2 8,7 8,3 12,4 15,1 14 8 33 18 SE 1021,5 65 0 0,0
21.09.2019 06:00:00 10,6 1,3 8,2 8,4 12,6 15,1 14 7 27 15 SE 1022,0 66 0 0,0
21.09.2019 05:00:00 10,4 1,3 7,8 8,6 12,8 15,1 9 5 26 14 SE 1022,3 63 0 0,0
21.09.2019 04:00:00 10,6 1,3 8,0 8,8 13,0 15,1 11 6 18 10 SE 1022,6 61 0 0,0
21.09.2019 03:00:00 10,7 1,2 8,6 9,1 13,2 15,1 12 7 24 13 SE 1023,2 64 0 0,0
21.09.2019 02:00:00 10,8 1,4 8,4 9,5 13,4 15,1 9 5 18 10 SE 1023,5 69 0 0,0
21.09.2019 01:00:00 11,1 1,8 8,5 9,9 13,6 15,2 9 5 18 10 SE 1023,5 69 0 0,0
21.09.2019 00:00:00 11,3 2,2 8,6 10,4 13,9 15,2 8 4 16 9 SE 1024,2 70 0 0,0
20.09.2019 23:00:00 11,6 2,2 8,7 11,0 14,1 15,2 4 2 13 7 SSW 1024,7 70 0 0,0
20.09.2019 22:00:00 11,4 2,1 9,0 11,8 14,3 15,2 11 6 16 9 SE 1025,3 65 0 0,0
20.09.2019 21:00:00 11,8 2,5 9,4 12,8 14,4 15,2 11 6 15 8 E 1025,5 69 0 0,0
20.09.2019 20:00:00 12,5 2,8 10,1 14,1 14,3 15,2 10 5 17 9 E 1025,5 70 4 0,0
20.09.2019 19:00:00 14,6 2,2 13,1 15,6 14,2 15,2 12 7 22 12 E 1025,3 68 57 0,0
20.09.2019 18:00:00 15,5 2,8 15,6 17,1 13,9 15,2 16 9 24 13 E 1025,3 47 58 0,0
20.09.2019 17:00:00 16,3 2,4 17,8 18,0 13,4 15,2 14 8 23 13 ESE 1025,6 26 60 0,0
20.09.2019 16:00:00 16,6 2,0 18,9 18,2 13,0 15,2 11 6 27 15 E 1026,0 30 60 0,0
20.09.2019 15:00:00 15,7 1,3 18,4 17,8 12,5 15,2 15 8 27 15 E 1027,0 29 60 0,0
20.09.2019 14:00:00 15,3 1,5 17,9 16,6 12,1 15,2 13 7 24 13 E 1027,4 25 60 0,0
20.09.2019 13:00:00 13,8 2,1 16,0 15,2 11,7 15,3 13 7 26 14 E 1028,4 27 60 0,0
20.09.2019 12:00:00 12,9 1,8 15,1 13,3 11,5 15,3 16 9 27 14 ESE 1028,7 40 60 0,0
20.09.2019 11:00:00 12,4 2,7 14,1 11,3 11,4 15,3 11 6 22 12 E 1029,2 39 60 0,0
20.09.2019 10:00:00 7,5 3,1 10,3 9,2 11,5 15,3 4 2 10 5 WNW 1030,3 49 60 0,0
20.09.2019 09:00:00 5,5 1,6 7,0 7,2 11,7 15,3 4 2 7 4 ENE 1030,5 44 57 0,0
20.09.2019 08:00:00 4,2 1,6 3,0 6,3 11,9 15,3 3 1 7 4 E 1030,4 38 0 0,0
20.09.2019 07:00:00 4,0 1,6 1,4 6,5 12,2 15,3 2 1 6 3 S 1030,3 41 0 0,0
20.09.2019 06:00:00 4,7 2,0 1,3 6,9 12,4 15,3 0 0 6 3 N 1030,2 41 0 0,0
20.09.2019 05:00:00 5,3 2,0 1,6 7,3 12,6 15,3 0 0 5 3 N 1030,4 45 0 0,0
20.09.2019 04:00:00 4,6 2,0 2,3 7,7 12,9 15,3 3 2 10 5 WNW 1030,8 40 0 0,0
20.09.2019 03:00:00 5,5 2,0 2,7 8,2 13,2 15,3 3 2 9 5 E 1030,9 51 0 0,0
20.09.2019 02:00:00 5,4 1,4 3,4 8,7 13,4 15,3 5 3 11 6 NE 1031,4 49 0 0,0
20.09.2019 01:00:00 7,3 2,0 4,8 9,2 13,7 15,3 8 4 10 5 E 1031,1 64 0 0,0
20.09.2019 00:00:00 7,7 2,1 4,9 9,7 13,9 15,3 7 4 10 5 E 1031,2 58 0 0,0
19.09.2019 23:00:00 8,1 2,1 5,6 10,4 14,2 15,3 6 3 10 6 E 1031,0 61 0 0,0
19.09.2019 22:00:00 8,9 2,4 4,9 11,3 14,3 15,4 5 3 8 4 NE 1030,6 63 0 0,0
19.09.2019 21:00:00 9,5 2,2 5,6 12,3 14,5 15,4 4 2 12 7 NE 1030,2 68 0 0,0
19.09.2019 20:00:00 10,3 2,2 7,2 13,7 14,4 15,4 7 4 16 9 NNE 1029,9 66 34 0,0
19.09.2019 19:00:00 11,9 2,3 10,7 15,2 14,3 15,4 11 6 22 12 NNE 1029,3 61 60 0,0
19.09.2019 18:00:00 12,8 2,2 14,0 16,4 14,1 15,4 11 6 22 12 NE 1028,9 35 60 0,0
19.09.2019 17:00:00 13,0 2,1 15,1 17,1 13,7 15,4 12 7 28 15 NNE 1029,3 28 60 0,0
19.09.2019 16:00:00 13,3 1,9 16,1 17,4 13,3 15,4 14 8 27 15 NNE 1029,6 33 60 0,0
19.09.2019 15:00:00 12,9 2,2 16,0 17,1 12,9 15,4 13 7 26 14 NE 1029,6 25 60 0,0
19.09.2019 14:00:00 11,9 2,0 15,0 15,9 12,6 15,4 15 8 30 16 NNE 1030,3 34 59 0,0
19.09.2019 13:00:00 11,7 2,4 14,7 14,5 12,3 15,4 14 8 27 15 NNE 1030,4 34 60 0,0
19.09.2019 12:00:00 10,0 2,5 11,3 12,2 12,2 15,4 13 7 22 12 NE 1031,0 55 33 0,0
19.09.2019 11:00:00 9,7 4,3 12,0 11,2 12,2 15,4 13 7 20 11 NE 1030,8 43 52 0,0
19.09.2019 10:00:00 8,2 4,8 10,2 9,8 12,3 15,4 10 6 16 8 NE 1031,1 24 60 0,0
19.09.2019 09:00:00 6,1 4,5 6,6 8,2 12,5 15,4 6 3 9 5 NE 1030,8 13 59 0,0
19.09.2019 08:00:00 4,8 4,5 4,0 7,2 12,7 15,4 4 2 8 4 ENE 1030,4 4,7 0 0,0
19.09.2019 07:00:00 4,6 4,4 1,6 7,6 12,9 15,4 4 2 8 4 NE 1030,0 3,2 0 0,0
19.09.2019 06:00:00 5,2 4,5 2,7 8,2 13,1 15,4 5 3 7 4 NNE 1029,6 10 0 0,0
19.09.2019 05:00:00 5,8 4,6 4,0 8,8 13,3 15,4 5 3 8 4 NNE 1029,5 20 0 0,0
19.09.2019 04:00:00 6,4 4,9 5,4 9,0 13,6 15,4 3 2 10 5 N 1029,4 29 0 0,0
19.09.2019 03:00:00 6,7 4,8 3,7 9,0 13,8 15,5 4 2 9 5 N 1029,4 37 0 0,0
19.09.2019 02:00:00 7,4 4,6 3,9 9,5 14,0 15,5 7 4 11 6 N 1029,2 52 0 0,0
19.09.2019 01:00:00 8,1 4,6 4,4 10,2 14,3 15,5 4 2 11 6 NNE 1028,7 56 0 0,0
19.09.2019 00:00:00 8,3 4,5 6,9 10,8 14,5 15,5 8 4 16 9 NE 1028,6 55 0 0,0
18.09.2019 23:00:00 9,1 4,5 7,2 11,6 14,7 15,5 10 5 18 10 NE 1028,1 44 0 0,0
18.09.2019 22:00:00 9,4 4,4 6,3 12,0 14,9 15,5 6 3 9 5 NE 1027,7 55 0 0,0
18.09.2019 21:00:00 10,1 4,2 7,2 12,7 15,0 15,5 7 4 16 9 NNE 1027,3 56 0 0,0
18.09.2019 20:00:00 11,0 3,5 9,1 13,9 15,0 15,5 11 6 16 9 N 1026,6 54 31 0,0
18.09.2019 19:00:00 12,1 2,7 10,6 15,3 14,9 15,5 11 6 27 15 NNE 1026,2 48 57 0,0
18.09.2019 18:00:00 12,8 2,7 13,1 16,5 14,7 15,5 15 8 28 15 N 1026,0 53 54 0,0
18.09.2019 17:00:00 13,4 3,2 15,1 17,3 14,4 15,5 17 9 29 16 NNW 1025,9 35 45 0,0
18.09.2019 16:00:00 13,4 2,4 17,0 17,8 14,1 15,5 15 8 29 16 NNW 1025,9 27 51 0,0
18.09.2019 15:00:00 12,7 3,2 14,6 17,5 13,7 15,5 14 8 27 14 NNE 1026,5 47 36 0,0
18.09.2019 14:00:00 13,1 3,6 17,4 16,9 13,3 15,5 13 7 27 15 N 1026,6 29 48 0,0
18.09.2019 13:00:00 11,5 3,4 13,3 15,7 13,0 15,5 16 9 30 16 NNE 1027,3 35 42 0,0
18.09.2019 12:00:00 11,4 3,3 16,0 14,1 12,8 15,5 17 9 29 15 NE 1027,4 31 53 0,0
18.09.2019 11:00:00 9,9 5,4 12,6 11,5 12,8 15,5 12 6 19 10 ENE 1027,7 27 27 0,0
18.09.2019 10:00:00 8,1 4,9 9,1 10,4 12,9 15,5 9 5 14 8 NE 1027,7 28 57 0,0
18.09.2019 09:00:00 5,5 3,3 6,6 8,6 13,1 15,5 3 2 5 3 N 1027,6 21 60 0,0
18.09.2019 08:00:00 4,3 3,6 4,0 7,6 13,4 15,5 3 2 5 3 ENE 1027,4 17 1 0,0
18.09.2019 07:00:00 5,6 4,3 2,6 7,8 13,7 15,5 3 2 5 3 ESE 1026,9 24 0 0,0
18.09.2019 06:00:00 5,1 4,0 2,3 8,2 14,0 15,5 4 2 6 3 NE 1026,6 26 0 0,0
18.09.2019 05:00:00 5,7 4,2 2,4 8,6 14,2 15,5 2 1 12 6 NE 1026,5 30 0 0,0
18.09.2019 04:00:00 6,4 4,4 3,3 9,1 14,5 15,5 5 3 18 10 NNE 1026,0 31 0 0,0
18.09.2019 03:00:00 6,4 3,9 4,0 9,6 14,8 15,5 9 5 18 10 N 1025,9 34 0 0,0
18.09.2019 02:00:00 7,0 4,0 4,9 10,3 15,1 15,5 11 6 20 11 N 1026,0 35 0 0,0
18.09.2019 01:00:00 7,5 4,1 5,8 11,1 15,4 15,5 14 7 25 13 N 1025,8 35 0 0,0
18.09.2019 00:00:00 8,8 4,7 7,2 12,1 15,6 15,5 16 9 28 15 N 1025,2 39 0 0,0
17.09.2019 23:00:00 9,8 4,9 9,2 12,7 15,8 15,5 16 8 36 20 N 1024,6 41 0 0,0
17.09.2019 22:00:00 10,3 6,1 9,9 13,1 16,0 15,5 22 12 39 21 N 1024,0 36 0 0,0
17.09.2019 21:00:00 11,3 5,9 9,6 13,8 16,2 15,5 16 9 36 19 NNW 1023,0 53 0 0,0
17.09.2019 20:00:00 12,5 6,5 11,2 15,0 16,2 15,5 16 8 29 16 NW 1021,8 38 2 0,0
17.09.2019 19:00:00 13,7 6,3 13,2 16,1 16,2 15,5 16 8 27 15 NW 1021,5 45 30 0,0
17.09.2019 18:00:00 14,0 6,1 14,0 17,3 16,1 15,5 13 7 30 16 NW 1021,5 42 12 0,0
17.09.2019 17:00:00 14,1 5,5 15,0 18,1 15,9 15,5 17 9 32 18 NW 1021,4 49 31 0,0
17.09.2019 16:00:00 14,5 5,8 16,4 19,0 15,6 15,5 18 10 31 17 NNW 1021,3 39 42 0,0
17.09.2019 15:00:00 14,1 6,0 15,9 19,1 15,3 15,5 19 11 31 17 N 1021,3 40 46 0,0
17.09.2019 14:00:00 14,3 6,4 18,5 18,0 15,1 15,5 14 8 29 15 NNW 1021,4 26 57 0,0
17.09.2019 13:00:00 13,7 6,8 16,0 16,8 14,9 15,5 16 9 28 15 NNW 1021,8 47 39 0,0
17.09.2019 12:00:00 12,4 7,2 14,2 15,6 14,8 15,5 14 8 23 13 NNW 1022,0 34 19 0,0
17.09.2019 11:00:00 12,6 7,2 15,8 14,7 14,8 15,5 10 5 21 11 NNW 1021,9 34 25 0,0
17.09.2019 10:00:00 11,9 7,6 13,3 13,7 14,9 15,5 11 6 19 11 NW 1021,7 30 32 0,0
17.09.2019 09:00:00 10,8 7,8 10,6 12,8 15,0 15,5 6 4 20 11 N 1021,4 34 8 0,0
17.09.2019 08:00:00 10,3 8,5 9,8 12,7 15,1 15,5 11 6 25 13 N 1021,4 22 0 0,0
17.09.2019 07:00:00 10,7 9,7 10,3 13,1 15,2 15,5 12 7 25 13 NNW 1020,9 13 0 0,0
17.09.2019 06:00:00 10,8 10,5 10,7 13,2 15,3 15,5 4 2 8 5 WNW 1020,7 9 0 0,0
17.09.2019 05:00:00 11,0 10,3 10,8 13,3 15,4 15,5 5 3 10 6 WNW 1020,6 7 0 0,0
17.09.2019 04:00:00 11,1 10,3 10,8 13,5 15,5 15,5 6 4 10 6 NNW 1020,9 15 0 0,0
17.09.2019 03:00:00 11,1 10,4 10,9 13,6 15,7 15,5 6 3 12 7 NNW 1020,9 13 0 0,0
17.09.2019 02:00:00 11,2 10,5 11,0 13,9 15,8 15,5 9 5 14 7 N 1021,2 12 0 0,0
17.09.2019 01:00:00 11,3 10,8 11,2 14,2 15,9 15,5 8 4 15 8 N 1021,2 9 0 0,0
17.09.2019 00:00:00 11,5 11,1 11,5 14,6 16,0 15,5 12 7 21 12 N 1021,3 6 0 0,1
16.09.2019 23:00:00 12,6 12,1 12,5 15,1 16,1 15,5 12 6 24 13 N 1020,6 10 0 0,0

tt = temperature
td = dewpoint
tt 5cm = temperature 5cm
tt -5cm = temperature -5cm
tt -20cm = temperature -20cm
tt -100cm = temperature -100cm
ff = wind speed
fx = gusts
dd = wind direction
ppp = reduced air pressure
vv = visibility
sd = sunshine duration
rr = precipitation

Next stations